This demonstration page uses our WeatherBlox Daily Observations layout. Learn more.

Left ArrowRight Arrow

39.51506, -84.39828

Hourly Observations for October 11, 2018

Temp ( °F °C ) Dew Point ( °F °C ) Humidity (%) Winds ( mph kmh ) Pressure ( in mb ) Visibility ( mi km ) Precip ( " mm )
12:15 am 00:15 Cloudy 70 21.1 69 20.5 96 96 SSW 5 7 29.77 1008 10 16.0934 0 0
12:35 am 00:35 Partly Cloudy 70 21.3 69 20.5 95 95 SW 7 11 29.77 1008 10 16.0934 0 0
12:55 am 00:55 Cloudy 70 21.1 69 20.3 95 95 SW 7 11 29.77 1008 10 16.0934 0 0
1:15 am 01:15 Mostly Cloudy 69 20.8 68 20.1 96 96 SSW 6 9 29.74 1007 10 16.0934 0 0
1:35 am 01:35 Mostly Cloudy 70 20.9 68 20.2 96 96 WSW 7 11 29.77 1008 10 16.0934 0 0
1:55 am 01:55 Mostly Cloudy 70 21.1 67 19.7 92 92 WSW 7 11 29.77 1008 10 16.0934 0 0
2:15 am 02:15 Clear 69 20.7 67 19.3 92 92 W 6 9 29.74 1007 10 16.0934 0 0
2:35 am 02:35 Cloudy 69 20.6 67 19.2 92 92 WSW 6 9 29.77 1008 10 16.0934 0 0
2:55 am 02:55 Cloudy 69 20.5 66 19.1 92 92 WSW 7 11 29.77 1008 10 16.0934 0 0
3:15 am 03:15 Cloudy 68 20 64 17.8 87 87 W 13 20 29.77 1008 10 16.0934 0 0
3:35 am 03:35 Cloudy 66 18.8 62 16.7 88 88 W 9 15 29.77 1008 10 16.0934 0 0
3:55 am 03:55 Cloudy 64 18 60 15.8 87 87 W 9 15 29.77 1008 10 16.0934 0 0
4:15 am 04:15 Cloudy 63 17.4 59 15.1 86 86 WNW 8 13 29.8 1009 10 16.0934 0 0
4:35 am 04:35 Cloudy 63 17.1 59 15.1 88 88 W 6 9 29.8 1009 10 16.0934 0 0
4:55 am 04:55 Cloudy 63 17 59 15 88 88 WNW 6 9 29.8 1009 10 16.0934 0 0
5:15 am 05:15 Cloudy 62 16.6 57 13.9 84 84 WNW 7 11 29.8 1009 10 16.0934 0 0
5:35 am 05:35 Cloudy 61 16.1 56 13.4 84 84 NW 8 13 29.8 1009 10 16.0934 0 0
5:55 am 05:55 Cloudy 60 15.4 54 12.1 81 81 WNW 12 19 29.83 1010 10 16.0934 0 0
6:15 am 06:15 Cloudy 59 14.9 53 11.7 81 81 NW 13 20 29.83 1010 10 16.0934 0 0
6:35 am 06:35 Mostly Cloudy 58 14.4 52 10.9 80 80 WNW 8 13 29.83 1010 10 16.0934 0 0
6:55 am 06:55 Mostly Cloudy 57 14.1 51 10.6 80 80 WNW 8 13 29.83 1010 10 16.0934 0 0
7:15 am 07:15 Cloudy 57 14.1 51 10.7 80 80 WNW 10 17 29.83 1010 10 16.0934 0 0
7:35 am 07:35 Cloudy 57 13.9 51 10.4 80 80 NW 14 22 29.83 1010 10 16.0934 0 0
7:55 am 07:55 Cloudy 56 13.4 50 9.9 80 80 NW 7 11 29.85 1011 10 16.0934 0 0
8:15 am 08:15 Cloudy 56 13.3 49 9.7 79 79 NW 8 13 29.85 1011 10 16.0934 0 0
8:35 am 08:35 Cloudy 56 13.5 50 9.9 79 79 WNW 9 15 29.85 1011 10 16.0934 0 0
8:55 am 08:55 Cloudy 56 13.6 50 9.9 79 79 WNW 9 15 29.88 1012 10 16.0934 0 0
9:15 am 09:15 Cloudy 56 13.2 49 9.5 78 78 WNW 13 20 29.88 1012 10 16.0934 0 0
9:35 am 09:35 Cloudy 55 12.5 48 8.8 78 78 WNW 8 13 29.91 1013 10 16.0934 0 0
9:55 am 09:55 Cloudy 53 11.8 46 7.8 77 77 NW 9 15 29.91 1013 10 16.0934 0 0
10:15 am 10:15 Cloudy 53 11.6 46 7.7 77 77 WNW 6 9 29.91 1013 10 16.0934 0 0
10:35 am 10:35 Cloudy 53 11.8 45 7.3 74 74 NNW 14 22 29.91 1013 10 16.0934 0 0
10:55 am 10:55 Cloudy 54 12.1 45 7.4 73 73 NW 10 17 29.91 1013 10 16.0934 0 0
11:15 am 11:15 Cloudy 54 12 45 7.3 73 73 WNW 8 13 29.91 1013 10 16.0934 0 0
11:35 am 11:35 Cloudy 55 12.9 46 7.6 70 70 NW 7 11 29.91 1013 10 16.0934 0 0
11:55 am 11:55 Cloudy 56 13.3 46 7.7 69 69 W 8 13 29.91 1013 10 16.0934 0 0
12:15 pm 12:15 Mostly Cloudy 59 15.2 46 7.8 62 62 WSW 12 19 29.88 1012 10 16.0934 0 0
12:35 pm 12:35 Sunny 58 14.4 46 7.5 63 63 WNW 9 15 29.88 1012 10 16.0934 0 0
12:55 pm 12:55 Partly Cloudy 60 15.7 46 7.6 59 59 WNW 13 20 29.88 1012 10 16.0934 0 0
1:15 pm 13:15 Sunny 61 15.9 46 7.6 58 58 W 14 22 29.88 1012 10 16.0934 0 0
1:35 pm 13:35 Sunny 61 16.3 46 7.6 57 57 NW 14 22 29.85 1011 10 16.0934 0 0
1:55 pm 13:55 Sunny 61 16.3 45 7.4 56 56 W 15 24 29.85 1011 10 16.0934 0 0
2:15 pm 14:15 Sunny 62 16.8 45 7.3 54 54 WNW 8 13 29.85 1011 10 16.0934 0 0
2:35 pm 14:35 Sunny 62 16.9 45 7 52 52 W 9 15 29.85 1011 10 16.0934 0 0
2:55 pm 14:55 Sunny 63 17.1 45 7.1 52 52 WNW 12 19 29.85 1011 10 16.0934 0 0
3:15 pm 15:15 Sunny 63 17 44 6.7 51 51 W 15 24 29.85 1011 10 16.0934 0 0
3:35 pm 15:35 Sunny 62 16.8 44 6.6 51 51 WNW 14 22 29.88 1012 10 16.0934 0 0
3:55 pm 15:55 Sunny 62 16.8 43 6.2 50 50 WNW 13 20 29.88 1012 10 16.0934 0 0
4:15 pm 16:15 Sunny 62 16.6 42 5.6 48 48 NW 16 26 29.85 1011 10 16.0934 0 0
4:35 pm 16:35 Sunny 61 16.3 42 5.3 48 48 WNW 12 19 29.88 1012 10 16.0934 0 0
4:55 pm 16:55 Sunny 61 16.2 41 4.9 47 47 WNW 15 24 29.88 1012 10 16.0934 0 0
5:15 pm 17:15 Sunny 61 16.2 42 5.7 50 50 WNW 12 19 29.88 1012 10 16.0934 0 0
5:35 pm 17:35 Sunny 60 15.7 41 4.9 49 49 WNW 12 19 29.88 1012 10 16.0934 0 0
5:55 pm 17:55 Sunny 59 14.8 40 4.6 51 51 WNW 16 26 29.88 1012 10 16.0934 0 0
6:15 pm 18:15 Sunny 58 14.2 40 4.6 53 53 WNW 13 20 29.91 1013 10 16.0934 0 0
6:35 pm 18:35 Sunny 56 13.5 40 4.3 54 54 WNW 14 22 29.91 1013 10 16.0934 0 0
6:55 pm 18:55 Sunny 55 12.6 40 4.5 58 58 W 9 15 29.91 1013 10 16.0934 0 0
7:15 pm 19:15 Clear 54 12 40 4.5 60 60 WNW 9 15 29.94 1014 10 16.0934 0 0
7:35 pm 19:35 Clear 53 11.5 40 4.6 63 63 WNW 10 17 29.94 1014 10 16.0934 0 0
7:55 pm 19:55 Clear 52 11.1 40 4.7 65 65 WNW 9 15 29.94 1014 10 16.0934 0 0
8:15 pm 20:15 Clear 51 10.7 40 4.5 66 66 WNW 6 9 29.94 1014 10 16.0934 0 0
8:35 pm 20:35 Clear 50 10.2 40 4.4 68 68 WNW 6 9 29.97 1015 10 16.0934 0 0
8:55 pm 20:55 Clear 50 9.8 40 4.3 69 69 W 3 6 29.97 1015 10 16.0934 0 0
9:15 pm 21:15 Clear 50 9.8 39 4.1 68 68 WNW 5 7 29.97 1015 10 16.0934 0 0
9:35 pm 21:35 Clear 49 9.7 39 4 68 68 WNW 6 9 29.97 1015 10 16.0934 0 0
9:55 pm 21:55 Clear 49 9.2 39 3.9 70 70 Calm 30 1016 10 16.0934 0 0
10:15 pm 22:15 Clear 47 8.6 39 4 73 73 Calm 30 1016 10 16.0934 0 0
10:35 pm 22:35 Clear 48 8.9 39 4 72 72 Calm 30 1016 10 16.0934 0 0
10:55 pm 22:55 Clear 47 8.2 39 4.1 76 76 Calm 30 1016 10 16.0934 0 0
11:15 pm 23:15 Clear 47 8.3 39 4.1 75 75 Calm 30 1016 10 16.0934 0 0
11:35 pm 23:35 Clear 46 7.7 39 4.1 78 78 WNW 5 7 30 1016 10 16.0934 0 0
11:55 pm 23:55 Clear 46 7.6 39 3.8 77 77 Calm 30 1016 10 16.0934 0 0

Powered by AerisWeather